Regional Weather Roundup
Issued by NWS

Home | Current Version | Previous Version | Graphics & Text | Print | Product List | Glossary On
Versions: 1 2 3 4 5 6 7 8 9 10 11 12 13 14 15 16 17 18 19 20 21 22 23 24 25 26 27 28 29 30 31 32 33 34 35 36 37 38 39 40 41 42 43 44 45 46 47 48 49 50
000
ASUS45 KBOU 232107
RWRCO

WEATHER ROUNDUP FOR COLORADO
NATIONAL WEATHER SERVICE DENVER/BOULDER CO
300 PM MDT SAT MAY 23 2015

NOTE: "FAIR" INDICATES FEW OR NO CLOUDS BELOW 12000 FEET WITH NO
SIGNIFICANT WEATHER AND/OR OBSTRUCTIONS TO VISIBILITY.

COZ001>005-013-030-031-232200-
...NORTHWEST COLORADO...

CITY           SKY/WX    TMP DP  RH WIND       PRES   REMARKS
CRAIG          PTSUNNY   53  36  52 W15       29.98R
HAYDEN         CLOUDY    48  34  57 NW9       29.98R
MEEKER         PTSUNNY   56  35  45 MISG      29.94F
MOUNT WERNER   NOT AVBL
STEAMBOAT SPGS   N/A     40  37  89 NE10      30.03R
WALDEN         CLOUDY    52  28  40 SW12G17   29.97S
$$

COZ006>008-011-232200-
...WEST CENTRAL VALLEYS...

CITY           SKY/WX    TMP DP  RH WIND       PRES   REMARKS
GRAND JUNCTION LGT RAIN  55  36  48 SE16      29.97R
MONTROSE       CLOUDY    51  36  56 NE7       30.02F
EAGLE          MOSUNNY   59  30  33 SW12G21   29.94S
RIFLE          LGT RAIN  51  36  56 W25G38    29.95R
DELTA          CLOUDY    60  37  42 MISG      30.00F THUNDER
NUCLA          CLOUDY    52  36  54 S13       30.03S THUNDER
$$

COZ017>023-064>068-232200-
...SOUTHWEST COLORADO...

CITY           SKY/WX    TMP DP  RH WIND       PRES   REMARKS
DURANGO        CLOUDY    56  24  29 SW16      30.02S
CORTEZ         PTSUNNY   57  35  43 SW16G22   30.03S
PAGOSA SPRINGS PTSUNNY   56  20  25 W12G23    30.05S
TELLURIDE      CLOUDY    39  30  70 S3        30.10F
WOLF CREEK PAS NOT AVBL
$$

COZ009-010-012-014-032>034-037-058>063-232200-
...CENTRAL COLORADO...

CITY           SKY/WX    TMP DP  RH WIND       PRES   REMARKS
ASPEN          PTSUNNY   55  28  35 N10G16    29.94F
BUENA VISTA    PTSUNNY   57  28  33 SE24G31   29.96F
COPPER MTN     CLOUDY    32  27  80 S21G36    30.14R VSB<1/4 WCI  20
BERTHOUD PASS  FAIR      28  21  74 S10G24    30.15F WCI  19
COTTONWOOD PAS PTSUNNY   52  28  40 SE28G35   30.01F
GUNNISON       NOT AVBL
KREMMLING      PTSUNNY   54  32  43 NE3       29.97F
LEADVILLE      CLOUDY    38  28  67 E8        30.04S
MONARCH PASS   PTSUNNY   36  19  51 SW18G35   30.22F
SALIDA         PTSUNNY   57  33  39 E16G25    30.03F
SUNLIGHT       PTSUNNY   41  28  60 CALM      30.12S
WILKERSON PASS PTSUNNY   36  32  87 SW3       30.14S
$$

COZ069>075-232200-
...SAN LUIS VALLEY/SANGRE DE CRISTO MOUNTAINS...

CITY           SKY/WX    TMP DP  RH WIND       PRES   REMARKS
ALAMOSA        PTSUNNY   59  17  19 S18G29    29.97F
LA VETA PASS   MOSUNNY  N/A N/A N/A MISG      30.09R
SAGUACHE       MOSUNNY   55  32  41 SE9       29.98F
$$

COZ035-036-038>040-232200-
...NORTHERN COLORADO FRONT RANGE...

CITY           SKY/WX    TMP DP  RH WIND       PRES   REMARKS
DENVER INTL AP CLOUDY    56  46  69 NW12      29.93F
DMNS CITY PARK   N/A     56  46  69 NE5       29.92F
AURORA         PTSUNNY   55  41  59 NW9       29.94R
FRONT RANGE AP PTSUNNY   59  48  67 S5G12     29.93S
ERIE MUNI ARPT PTSUNNY   52  49  90 N8        29.93F
BOULDER MUN AP LGT RAIN  50  46  87 N10       29.93F
CENTENNIAL     PTSUNNY   57  42  57 NW9       29.94R
BROOMFIELD     PTSUNNY   50  48  93 N10       29.94F
FORT COLLINS   CLOUDY    50  45  81 E3        29.96R THUNDER
LONGMONT       DRIZZLE   52  48  86 NE8       29.96S
$$

COZ041-046-047-076>085-087-088-232200-
...PIKES PEAK/PALMER DIVIDE AND SOUTHERN FOOTHILLS...

CITY           SKY/WX    TMP DP  RH WIND       PRES   REMARKS
COLO. SPRINGS  CLOUDY    57  46  66 NE7       29.94F THUNDER
A. F. ACADEMY  DRIZZLE   52  43  71 W20G30    29.98R
ELLICOTT       NOT AVBL
FALCON         CLOUDY    55  43  63 CALM      29.98F
FORT CARSON    MOSUNNY   60  46  58 SE6       29.92S
LIMON          TSTM      50  42  74 S21G36    29.97R
MONUMENT HILL  NOT AVBL
TRINIDAD       PTSUNNY   60  44  55 CALM      29.88F
$$

COZ042>045-048>051-090-091-232200-
...NORTHEAST COLORADO...

CITY           SKY/WX    TMP DP  RH WIND       PRES   REMARKS
GREELEY ARPT   CLOUDY    57  52  82 N3        29.93S
AKRON          PTSUNNY   65  49  56 SE21G29   29.90F
BURLINGTON     PTSUNNY   65  51  60 SE16      29.92F
WRAY           CLOUDY    65  52  63 SE15G23   29.94F
STERLING       TSTM      59  55  88 N9        29.87F
HOLYOKE        NOT AVBL
FORT MORGAN    TSTM      56  52  85 N5        29.91F
$$

COZ086-089-092>099-232200-
...SOUTHEAST COLORADO...

CITY           SKY/WX    TMP DP  RH WIND       PRES   REMARKS
PUEBLO         MOSUNNY   64  50  60 MISG      29.86F
LA JUNTA       PTSUNNY   62  56  80 NW24      29.85S THUNDER
LAMAR          MOSUNNY   71  56  58 SE22G29   29.84F
SPRINGFIELD      N/A     67  55  65 S18G25    29.89F
$$



USA.gov is the U.S. government's official web portal to all federal, state and local government web resources and services.